GPS BIIF-4

Last updated on Thu Jul 10 2025 00:02:32 GMT+0000 (Coordinated Universal Time)

1 39166U 13023A 25189.66426556 -.00000025 00000+0 00000+0 0 9995 2 39166 54.7795 282.9502 0132898 48.1707 313.0036 2.00560980 88990
UTC large
Height (km)
Speed (km/s)
/
Latitude / Longitude
Inclination (degrees)
Orbital Period (minutes)
Azimuth
Elevation
Range (km)
Doppler Factor

Next 0 passes for location: London (51.5072 / 0.1276)

Sorry there are no passes over London.